This is the latest recevied weather packets stored in our database for station/object KC4JIR. If no packets are shown the sender has not sent any weather packets the latest 10 day(s).
| Time | Temp. | Humidity | Pressure | Rain* | Wind** | Luminosity | Snow |
|---|---|---|---|---|---|---|---|
| 1777935867 | 22.78° C | 43% | 1012.5 hPa | 0 mm | - | 64 W/m² | - |
| 1777935566 | 22.78° C | 45% | 1012.4 hPa | 0 mm | - | 65 W/m² | - |
| 1777935262 | 22.78° C | 47% | 1012.4 hPa | 0 mm | - | 58 W/m² | - |
| 1777934960 | 23.33° C | 44% | 1012.4 hPa | 0 mm | - | 70 W/m² | - |
| 1777934656 | 23.33° C | 44% | 1012.4 hPa | 0 mm | - | 42 W/m² | - |
| 1777934353 | 25° C | 39% | 1012.3 hPa | 0 mm | - | 41 W/m² | - |
| 1777934048 | 25.56° C | 41% | 1012.4 hPa | 0 mm | - | 88 W/m² | - |
| 1777933745 | 26.67° C | 36% | 1012.5 hPa | 0 mm | - | 70 W/m² | - |
| 1777933442 | 26.67° C | 36% | 1012.2 hPa | 0 mm | - | 254 W/m² | - |
| 1777933140 | 26.11° C | 32% | 1012.6 hPa | 0 mm | - | 180 W/m² | - |
| 1777932837 | 26.67° C | 30% | 1012.6 hPa | 0 mm | - | 244 W/m² | - |
| 1777932534 | 26.67° C | 30% | 1012.5 hPa | 0 mm | - | 140 W/m² | - |
| 1777932230 | 27.22° C | 32% | 1012.5 hPa | 0 mm | - | 140 W/m² | - |
| 1777931928 | 26.67° C | 32% | 1012.8 hPa | 0 mm | - | 310 W/m² | - |
| 1777931624 | 26.67° C | 33% | 1012.6 hPa | 0 mm | - | 348 W/m² | - |
| 1777931320 | 26.67° C | 32% | 1012.5 hPa | 0 mm | - | 288 W/m² | - |
| 1777931018 | 27.22° C | 34% | 1012.6 hPa | 0 mm | - | 225 W/m² | - |
| 1777930714 | 27.78° C | 31% | 1012.7 hPa | 0 mm | - | 337 W/m² | - |
| 1777930410 | 27.22° C | 32% | 1012.5 hPa | 0 mm | - | 371 W/m² | - |
| 1777930107 | 26.11° C | 32% | 1012.5 hPa | 0 mm | - | 352 W/m² | - |
| 1777929803 | 26.67° C | 34% | 1012.5 hPa | 0 mm | - | 311 W/m² | - |
| 1777929502 | 26.67° C | 35% | 1012.6 hPa | 0 mm | - | 374 W/m² | - |
| 1777929197 | 27.22° C | 33% | 1012.7 hPa | 0 mm | - | 295 W/m² | - |
| 1777928895 | 27.22° C | 34% | 1012.4 hPa | 0 mm | - | 472 W/m² | - |
| 1777928592 | 27.22° C | 33% | 1012.6 hPa | 0 mm | - | 371 W/m² | - |
* Rain latest hour (hover to see other rain measurements)
** Current wind speed in m/s (hover to see current wind gust speed)